TimeEDT,TemperatureF,Dew PointF,Humidity,Sea Level PressureIn,VisibilityMPH,Wind Direction,Wind SpeedMPH,Gust SpeedMPH,PrecipitationIn,Events,Conditions,WindDirDegrees,DateUTC
12:15 AM,56.3,53.8,91,30.27,10.0,Calm,Calm,-,N/A,,Scattered Clouds,0,2013-10-30 04:15:00
12:35 AM,55.8,53.8,93,30.27,10.0,Calm,Calm,-,N/A,,Mostly Cloudy,0,2013-10-30 04:35:00
12:55 AM,55.6,53.8,94,30.27,10.0,Calm,Calm,-,N/A,,Overcast,0,2013-10-30 04:55:00
1:15 AM,56.3,53.6,91,30.27,10.0,Calm,Calm,-,N/A,,Overcast,0,2013-10-30 05:15:00
1:35 AM,55.4,53.8,94,30.26,10.0,Calm,Calm,-,N/A,,Mostly Cloudy,0,2013-10-30 05:35:00
1:55 AM,56.1,53.8,92,30.26,10.0,Calm,Calm,-,N/A,,Overcast,0,2013-10-30 05:55:00
2:15 AM,55.2,53.6,94,30.26,10.0,Calm,Calm,-,N/A,,Mostly Cloudy,0,2013-10-30 06:15:00
2:35 AM,55.4,53.6,94,30.25,10.0,Calm,Calm,-,N/A,,Overcast,0,2013-10-30 06:35:00
2:55 AM,55.8,53.6,92,30.25,10.0,Calm,Calm,-,N/A,,Overcast,0,2013-10-30 06:55:00
3:15 AM,55.6,54.1,95,30.25,10.0,Calm,Calm,-,N/A,Rain,Light Rain,0,2013-10-30 07:15:00
3:35 AM,55.9,54.5,95,30.25,10.0,Calm,Calm,-,N/A,,Overcast,0,2013-10-30 07:35:00
3:55 AM,56.1,54.0,92,30.25,10.0,Calm,Calm,-,N/A,Rain,Rain,0,2013-10-30 07:55:00
4:15 AM,55.4,54.3,96,30.25,10.0,Calm,Calm,-,N/A,Rain,Light Rain,0,2013-10-30 08:15:00
4:35 AM,55.6,54.7,97,30.26,10.0,Calm,Calm,-,N/A,,Light Drizzle,0,2013-10-30 08:35:00
4:55 AM,55.4,55.4,100,30.26,4.0,Calm,Calm,-,0.03,Rain,Rain,0,2013-10-30 08:55:00
5:15 AM,55.4,55.4,100,30.26,2.5,Calm,Calm,-,0.11,Rain,Heavy Rain,0,2013-10-30 09:15:00
5:35 AM,54.9,54.9,100,30.25,2.5,Calm,Calm,-,0.19,Rain,Heavy Rain,0,2013-10-30 09:35:00
5:55 AM,54.9,54.9,100,30.26,2.5,Calm,Calm,-,0.22,Rain,Rain,0,2013-10-30 09:55:00
6:15 AM,54.9,54.9,100,30.26,4.0,Calm,Calm,-,0.01,Rain,Rain,0,2013-10-30 10:15:00
6:35 AM,55.0,55.0,100,30.26,3.0,Calm,Calm,-,0.02,Rain,Light Rain,0,2013-10-30 10:35:00
6:55 AM,55.4,55.4,100,30.26,3.0,Calm,Calm,-,0.03,Rain,Light Rain,0,2013-10-30 10:55:00
7:15 AM,55.4,55.4,100,30.26,5.0,Calm,Calm,-,N/A,,Overcast,0,2013-10-30 11:15:00
7:35 AM,55.6,55.6,100,30.27,7.0,Calm,Calm,-,N/A,,Overcast,0,2013-10-30 11:35:00
7:55 AM,55.8,55.8,100,30.27,5.0,Calm,Calm,-,N/A,,Overcast,0,2013-10-30 11:55:00
8:15 AM,55.4,55.4,100,30.28,2.0,Calm,Calm,-,N/A,,Overcast,0,2013-10-30 12:15:00
8:35 AM,55.8,55.8,100,30.28,2.5,Calm,Calm,-,N/A,,Overcast,0,2013-10-30 12:35:00
8:55 AM,55.8,55.8,100,30.29,1.8,Calm,Calm,-,N/A,,Overcast,0,2013-10-30 12:55:00
9:15 AM,56.1,56.1,100,30.30,2.5,Calm,Calm,-,N/A,,Overcast,0,2013-10-30 13:15:00
9:35 AM,56.5,56.5,100,30.31,4.0,Calm,Calm,-,N/A,,Overcast,0,2013-10-30 13:35:00
9:55 AM,57.4,57.4,100,30.30,4.0,SW,5.8,-,N/A,,Mostly Cloudy,220,2013-10-30 13:55:00
10:15 AM,59.2,59.2,100,30.30,7.0,WSW,6.9,-,0.01,,Overcast,250,2013-10-30 14:15:00
10:35 AM,59.4,59.4,100,30.30,10.0,West,6.9,-,0.01,,Overcast,260,2013-10-30 14:35:00
10:55 AM,60.3,59.2,96,30.30,10.0,West,6.9,-,0.01,,Overcast,270,2013-10-30 14:55:00
11:15 AM,62.1,59.9,93,30.30,10.0,West,8.1,-,N/A,,Scattered Clouds,280,2013-10-30 15:15:00
11:35 AM,62.6,60.1,91,30.30,10.0,West,6.9,-,N/A,,Mostly Cloudy,270,2013-10-30 15:35:00
11:55 AM,62.8,59.9,90,30.30,10.0,West,6.9,-,N/A,,Overcast,270,2013-10-30 15:55:00
12:15 PM,64.0,60.1,87,30.28,10.0,West,10.4,16.1,N/A,,Overcast,280,2013-10-30 16:15:00
12:35 PM,65.3,59.9,83,30.28,10.0,West,11.5,17.3,N/A,,Mostly Cloudy,270,2013-10-30 16:35:00
12:55 PM,66.2,60.4,82,30.27,10.0,West,10.4,-,N/A,,Overcast,260,2013-10-30 16:55:00
1:15 PM,66.7,60.3,80,30.26,10.0,West,10.4,-,N/A,,Overcast,280,2013-10-30 17:15:00
1:35 PM,67.3,60.3,78,30.25,10.0,West,8.1,-,N/A,,Overcast,260,2013-10-30 17:35:00
1:55 PM,69.4,60.6,73,30.24,10.0,West,13.8,17.3,N/A,,Overcast,280,2013-10-30 17:55:00
2:15 PM,67.5,59.5,76,30.23,10.0,West,9.2,-,N/A,,Overcast,280,2013-10-30 18:15:00
2:35 PM,69.3,60.3,73,30.22,10.0,West,8.1,-,N/A,,Overcast,280,2013-10-30 18:35:00
2:55 PM,68.9,59.4,72,30.22,10.0,WNW,6.9,10.4,N/A,,Overcast,290,2013-10-30 18:55:00
3:15 PM,68.5,59.2,72,30.21,10.0,West,8.1,-,N/A,,Overcast,270,2013-10-30 19:15:00
3:35 PM,68.4,58.8,71,30.20,10.0,West,4.6,-,N/A,,Overcast,280,2013-10-30 19:35:00
3:55 PM,68.5,59.0,72,30.20,10.0,West,4.6,-,N/A,,Overcast,280,2013-10-30 19:55:00
4:15 PM,68.9,59.4,72,30.20,10.0,Calm,Calm,-,N/A,,Overcast,0,2013-10-30 20:15:00
4:35 PM,69.3,59.2,70,30.20,10.0,Calm,Calm,-,N/A,,Overcast,0,2013-10-30 20:35:00
4:55 PM,69.1,59.4,71,30.20,10.0,Calm,Calm,-,N/A,,Overcast,0,2013-10-30 20:55:00
5:15 PM,70.7,60.1,69,30.20,10.0,Calm,Calm,-,N/A,,Overcast,0,2013-10-30 21:15:00
5:35 PM,69.6,59.0,69,30.20,10.0,WNW,4.6,-,N/A,,Overcast,290,2013-10-30 21:35:00
5:55 PM,69.4,58.8,69,30.19,10.0,Calm,Calm,-,N/A,,Overcast,0,2013-10-30 21:55:00
6:15 PM,69.1,58.5,69,30.19,10.0,Calm,Calm,-,N/A,,Overcast,0,2013-10-30 22:15:00
6:35 PM,68.0,59.0,73,30.20,10.0,Calm,Calm,-,N/A,,Overcast,0,2013-10-30 22:35:00
6:55 PM,66.9,59.5,77,30.21,10.0,Calm,Calm,-,N/A,,Overcast,0,2013-10-30 22:55:00
7:15 PM,65.7,60.3,83,30.22,10.0,Calm,Calm,-,N/A,,Overcast,0,2013-10-30 23:15:00
8:55 PM,60.3,59.2,96,30.21,10.0,Calm,Calm,-,N/A,,Scattered Clouds,0,2013-10-31 00:55:00
9:15 PM,59.5,59.0,98,30.21,10.0,Calm,Calm,-,N/A,,Overcast,0,2013-10-31 01:15:00
9:35 PM,60.4,59.4,96,30.21,10.0,Calm,Calm,-,N/A,,Overcast,0,2013-10-31 01:35:00
9:55 PM,61.0,59.7,96,30.22,10.0,Calm,Calm,-,N/A,,Overcast,0,2013-10-31 01:55:00
10:15 PM,61.2,60.1,96,30.21,10.0,East,3.5,-,N/A,,Overcast,100,2013-10-31 02:15:00
10:35 PM,60.3,59.5,97,30.21,10.0,ESE,4.6,-,N/A,,Overcast,110,2013-10-31 02:35:00
10:55 PM,60.4,59.9,98,30.21,7.0,Calm,Calm,-,N/A,,Overcast,0,2013-10-31 02:55:00
11:15 PM,60.8,59.5,96,30.20,10.0,Calm,Calm,-,N/A,,Mostly Cloudy,0,2013-10-31 03:15:00
11:35 PM,60.3,59.2,96,30.20,10.0,Calm,Calm,-,N/A,,Scattered Clouds,0,2013-10-31 03:35:00
11:55 PM,59.0,58.5,98,30.19,10.0,Calm,Calm,-,N/A,,Clear,0,2013-10-31 03:55:00